Regional Weather Roundup
Issued by NWS

Home | Current Version | Previous Version | Graphics & Text | Print | Product List | Glossary On
Versions: 1 2 3 4 5 6 7 8 9 10 11 12 13 14 15 16 17 18 19 20 21 22 23 24 25 26 27 28 29 30 31 32 33 34 35 36 37 38 39 40 41 42 43 44 45 46 47 48 49 50
000
ASUS43 KIND 230759
RWRIN

WEATHER ROUNDUP FOR INDIANA
NATIONAL WEATHER SERVICE INDIANAPOLIS IN
300 AM EST THU NOV 23 2017

NOTE: "FAIR" INDICATES FEW OR NO CLOUDS BELOW 12,000 FEET WITH NO
SIGNIFICANT WEATHER AND/OR OBSTRUCTIONS TO VISIBILITY.

* - STATION DOES NOT REPORT WEATHER SUCH AS PRECIPITATION OR FOG.

+ - STATION NOT QUALITY CONTROLLED BY THE NATIONAL WEATHER SERVICE.
    USE DATA WITH CAUTION...ESPECIALLY DEWPOINT AND RELATIVE
    HUMIDITY OBSERVATIONS.

INZ001>003-010>013-019-020-230900-
NORTHWEST INDIANA

CITY           SKY/WX    TMP DP  RH WIND       PRES   REMARKS
KNOX *+        CLOUDY    30  23  74 CALM      30.18S
MICHIGAN CITY+ CLOUDY    32  19  59 SW6       30.18S WCI  26
MONTICELLO +   CLOUDY    30  23  77 S3        30.18F
RENSSELAER +   CLOUDY    32  23  69 S6        30.18F WCI  26

$$

LMZ046-743>745-230900-
SOUTHERN LAKE MICHIGAN

STATION/POSITION TIME  TEMP    WIND        PRES    WAVE
                       AIR SEA DIR/SP/G            HT
                 (UTC) (F)     (DEG/KT/KT) (MB)    (FT)
BURNS HARBOR     0740   32     210/  7/  9 1022.0F
MICHIGAN CITY    0730   31     180/  8/  9   N/A

$$

INZ004-005-014>016-021>024-230900-
NORTH CENTRAL INDIANA

CITY           SKY/WX    TMP DP  RH WIND       PRES   REMARKS
GOSHEN         CLOUDY    30  21  69 SW6       30.17S WCI  24
PERU/GRISSOM   CLOUDY    29  28  92 SW5       30.17F WCI  24
SOUTH BEND     CLOUDY    29  20  69 SW7       30.18S WCI  22
WARSAW +       CLOUDY    30  21  69 SW3       30.17S

$$

INZ006>009-017-018-025>027-230900-
NORTHEAST INDIANA

CITY           SKY/WX    TMP DP  RH WIND       PRES   REMARKS
AUBURN +       CLOUDY    30  23  74 CALM      30.18S
FORT WAYNE     CLOUDY    30  26  85 SW7       30.18F WCI  23
KENDALLVILLE + CLOUDY    29  22  76 SW5       30.16S WCI  23

$$

INZ028-029-035-036-043>045-051>053-230900-
WEST CENTRAL INDIANA

CITY           SKY/WX    TMP DP  RH WIND       PRES   REMARKS
CRAWFORDSVL +  CLOUDY    26  26 100 MISG        N/A
GREENCASTLE +  CLOUDY    28  27  93 CALM      30.21S
LAFAYETTE      CLOUDY    29  26  89 CALM      30.19F
TERRE HAUTE    MOCLDY    28  24  85 CALM      30.22S

$$

INZ030>032-037>040-046>048-054>057-064-065-230900-
CENTRAL INDIANA

CITY           SKY/WX    TMP DP  RH WIND       PRES   REMARKS
FRANKFORT +    CLOUDY    32  28  86 CALM      30.21S
GREENWOOD *+   PTCLDY    30  27  88 CALM      30.21R
INDIANAPOLIS   CLOUDY    29  23  78 SW3       30.21R
-EAGLE CREEK   CLOUDY    29  24  82 CALM      30.20R
KOKOMO +       CLOUDY    30  26  85 S5        30.19F WCI  25
MT COMFORT *+  PTCLDY    23  23 100 CALM      30.20S
SHELBYVILLE    PTCLDY    24  20  84 CALM      30.20S

$$

INZ033-034-041-042-049-050-058-059-230900-
EAST CENTRAL INDIANA

CITY           SKY/WX    TMP DP  RH WIND       PRES   REMARKS
MUNCIE         MOCLDY    30  23  75 S5        30.19S WCI  25
RICHMOND +     PTCLDY    23  21  93 S5        30.20R WCI  17

$$

INZ060-061-067>069-081>083-085>088-230900-
SOUTHWEST INDIANA

CITY           SKY/WX    TMP DP  RH WIND       PRES   REMARKS
EVANSVILLE     MOCLDY    27  25  92 CALM      30.24F
HUNTINGBURG +  CLOUDY    24  23  96 CALM      30.23S

$$

INZ062-063-066-070>080-084-089>092-230900-
SOUTH CENTRAL AND SOUTHEAST INDIANA

CITY           SKY/WX    TMP DP  RH WIND       PRES   REMARKS
BLOOMINGTON    PTCLDY    28  22  78 CALM      30.21R
MADISON *+     CLOUDY    27  23  86 CALM      30.23S
SEYMOUR +      PTCLDY    25  21  86 CALM      30.22F

$$




USA.gov is the U.S. government's official web portal to all federal, state and local government web resources and services.